FW7761 Weather Reports


time (UTC)temp
C
wind
direction
speed
KPH
gust
KPH
rain 1hr
cm
rain 24hr
cm
rain mn
cm
humidity
%
barometer
mb
20260507002525 11 91 11.3 20.9 0.00 0.00 0.00 77 1013.0
20260507001517 11 98 11.3 20.9 0.00 0.00 0.00 76 1013.2
20260507000612 11 95 14.5 24.1 0.00 0.00 0.00 76 1013.2
20260506235526 11 81 12.9 25.7 0.00 0.00 0.00 76 1013.2
20260506234541 11 79 9.7 20.9 0.00 0.00 0.00 76 1013.2
20260506233535 11 78 11.3 20.9 0.00 0.00 0.00 77 1013.3
20260506232528 11 85 11.3 22.5 0.00 0.00 0.00 77 1013.3
20260506231545 11 100 12.9 24.1 0.00 0.00 0.00 78 1013.4
20260506230518 11 76 14.5 25.7 0.00 0.00 0.00 79 1013.4
20260506225532 11 89 11.3 22.5 0.00 0.00 0.00 80 1013.4
20260506224547 11 98 12.9 25.7 0.00 0.00 0.00 81 1013.2
20260506223521 11 87 12.9 22.5 0.00 0.00 0.00 81 1013.3
20260506222537 11 97 9.7 20.9 0.00 0.00 0.00 80 1013.4
20260506221529 11 107 8.0 16.1 0.00 0.00 0.00 81 1013.3
20260506220523 11 108 6.4 11.3 0.00 0.00 0.00 81 1013.2
20260506215518 11 97 9.7 17.7 0.00 0.00 0.00 81 1013.2
20260506214532 11 100 8.0 14.5 0.00 0.00 0.00 80 1013.3
20260506213607 11 105 8.0 12.9 0.00 0.00 0.00 81 1013.2
20260506212541 11 108 6.4 12.9 0.00 0.00 0.00 81 1013.1
20260506211516 12 94 6.4 12.9 0.00 0.00 0.00 81 1013.0
20260506210552 12 96 8.0 14.5 0.00 0.00 0.00 81 1012.8
20260506205525 12 111 8.0 16.1 0.00 0.00 0.00 81 1012.5
20260506204520 12 107 8.0 12.9 0.00 0.00 0.00 80 1012.5
20260506203535 13 101 9.7 17.7 0.00 0.00 0.00 78 1012.3
20260506202529 13 108 9.7 16.1 0.00 0.00 0.00 76 1012.2
20260506201543 13 120 9.7 14.5 0.00 0.00 0.00 75 1012.1
20260506200538 13 98 11.3 20.9 0.00 0.00 0.00 74 1011.9
20260506195533 14 113 11.3 22.5 0.00 0.00 0.00 73 1011.7
20260506194546 14 106 12.9 20.9 0.00 0.00 0.00 71 1011.5
20260506193520 14 96 11.3 27.4 0.00 0.00 0.00 70 1011.3
20260506192534 14 117 9.7 17.7 0.00 0.00 0.00 65 1011.3
20260506191531 16 115 4.8 17.7 0.00 0.00 0.00 43 1011.1
20260506190524 17 136 3.2 6.4 0.00 0.00 0.00 38 1011.0
20260506185516 18 144 0.0 1.6 0.00 0.00 0.00 35 1010.9
20260506184531 19 144 0.0 1.6 0.00 0.00 0.00 33 1010.9
20260506183526 19 144 0.0 1.6 0.00 0.00 0.00 32 1010.7
20260506182520 19 135 0.0 3.2 0.00 0.00 0.00 32 1010.7
20260506181535 19 209 1.6 6.4 0.00 0.00 0.00 32 1010.6
20260506180530 20 250 3.2 6.4 0.00 0.00 0.00 32 1010.7
20260506175545 20 275 3.2 4.8 0.00 0.00 0.00 32 1010.7
20260506174517 20 272 0.0 1.6 0.00 0.00 0.00 30 1010.8
20260506173532 20 222 4.8 9.7 0.00 0.00 0.00 32 1010.7
20260506172528 20 104 1.6 3.2 0.00 0.00 0.00 32 1010.8
20260506171521 19 105 1.6 3.2 0.00 0.00 0.00 33 1010.8
20260506170535 20 158 3.2 6.4 0.00 0.00 0.00 32 1010.8
20260506165529 19 212 4.8 6.4 0.00 0.00 0.00 32 1010.9
20260506164523 20 215 3.2 11.3 0.00 0.00 0.00 32 1011.1
20260506163519 19 260 4.8 9.7 0.00 0.00 0.00 33 1011.0
20260506162532 18 282 3.2 9.7 0.00 0.00 0.00 34 1011.0
20260506161527 18 336 1.6 3.2 0.00 0.00 0.00 34 1011.0
20260506160521 19 79 1.6 4.8 0.00 0.00 0.00 34 1010.9
20260506155535 18 35 3.2 3.2 0.00 0.00 0.00 35 1011.1
20260506154531 17 329 3.2 4.8 0.00 0.00 0.00 37 1011.1
20260506153529 17 255 1.6 3.2 0.00 0.00 0.00 39 1011.1
20260506152519 18 208 1.6 3.2 0.00 0.00 0.00 35 1011.0
20260506151534 18 192 3.2 6.4 0.00 0.00 0.00 35 1011.2
20260506150527 18 215 3.2 6.4 0.00 0.00 0.00 35 1011.4
20260506145522 17 243 6.4 9.7 0.00 0.00 0.00 36 1011.5
20260506144536 18 217 6.4 9.7 0.00 0.00 0.00 35 1011.5
20260506143530 19 211 8.0 16.1 0.00 0.00 0.00 35 1011.5
20260506142524 18 173 3.2 6.4 0.00 0.00 0.00 35 1011.7
20260506141518 18 168 3.2 4.8 0.00 0.00 0.00 37 1011.9
20260506140533 17 237 3.2 6.4 0.00 0.00 0.00 37 1011.9
20260506135526 18 279 4.8 11.3 0.00 0.00 0.00 37 1012.0
20260506134521 19 246 6.4 11.3 0.00 0.00 0.00 36 1012.0
20260506133516 18 201 1.6 6.4 0.00 0.00 0.00 35 1012.1
20260506132530 19 171 4.8 9.7 0.00 0.00 0.00 34 1012.2
20260506131525 19 220 6.4 14.5 0.00 0.00 0.00 35 1012.2
20260506130518 18 176 6.4 14.5 0.00 0.00 0.00 36 1012.2
20260506125533 20 118 4.8 11.3 0.00 0.00 0.00 34 1012.3
20260506124527 19 181 6.4 12.9 0.00 0.00 0.00 35 1012.3
20260506123520 18 193 6.4 11.3 0.00 0.00 0.00 35 1012.4
20260506122534 18 130 6.4 11.3 0.00 0.00 0.00 35 1012.4
20260506121527 18 153 4.8 6.4 0.00 0.00 0.00 35 1012.5
20260506120522 18 160 4.8 11.3 0.00 0.00 0.00 34 1012.7
20260506115518 18 189 3.2 9.7 0.00 0.00 0.00 34 1012.8
20260506114532 18 338 4.8 12.9 0.00 0.00 0.00 35 1012.9
20260506113525 18 48 1.6 3.2 0.00 0.00 0.00 35 1012.9
20260506112519 18 127 4.8 12.9 0.00 0.00 0.00 36 1012.9
20260506111534 18 243 6.4 11.3 0.00 0.00 0.00 37 1013.0
20260506110529 18 313 3.2 6.4 0.00 0.00 0.00 37 1013.1
20260506105522 17 21 4.8 12.9 0.00 0.00 0.00 37 1013.2
20260506104516 17 218 3.2 6.4 0.00 0.00 0.00 36 1013.2
20260506103530 17 116 6.4 9.7 0.00 0.00 0.00 37 1013.2
20260506102526 17 85 3.2 11.3 0.00 0.00 0.00 38 1013.2
20260506101520 17 316 3.2 6.4 0.00 0.00 0.00 40 1013.3
20260506100614 16 304 4.8 11.3 0.00 0.00 0.00 41 1013.3
20260506095528 15 16 1.6 3.2 0.00 0.00 0.00 44 1013.3
20260506094524 15 314 3.2 9.7 0.00 0.00 0.00 42 1013.3
20260506093517 16 315 4.8 6.4 0.00 0.00 0.00 42 1013.3
20260506092532 15 294 3.2 6.4 0.00 0.00 0.00 46 1013.3
20260506091526 15 10 1.6 4.8 0.00 0.00 0.00 50 1013.2
20260506090521 15 114 4.8 6.4 0.00 0.00 0.00 56 1013.2
20260506085715 15 98 1.6 6.4 0.00 0.00 0.00 58 1013.3
20260506084530 15 135 4.8 9.7 0.00 0.00 0.00 61 1013.3
20260506083524 14 63 1.6 6.4 0.00 0.00 0.00 63 1013.2
20260506082518 13 68 4.8 9.7 0.00 0.00 0.00 65 1013.3
20260506081532 13 84 6.4 11.3 0.00 0.00 0.00 65 1013.3
20260506080526 13 80 6.4 12.9 0.00 0.00 0.00 66 1013.4
20260506073529 11 75 8.0 12.9 0.00 0.00 0.00 69 1013.6
20260506072524 11 72 4.8 14.5 0.00 0.00 0.00 70 1013.5
20260506071519 11 66 4.8 9.7 0.00 0.00 0.00 71 1013.6
20260506070533 10 61 4.8 9.7 0.00 0.00 0.00 73 1013.6
20260506061525 7 61 3.2 4.8 0.00 0.00 0.00 85 1013.4
20260506060519 6 39 1.6 4.8 0.00 0.00 0.00 87 1013.3
20260506050526 5 92 1.6 3.2 0.00 0.00 0.00 87 1013.0
20260506044536 5 74 0.0 1.6 0.00 0.00 0.00 88 1012.8
20260506043529 5 74 0.0 1.6 0.00 0.00 0.00 88 1012.9
20260506042525 5 74 0.0 1.6 0.00 0.00 0.00 86 1012.9
20260506041520 4 0.0 0.0 0.00 0.00 0.00 86 1013.0
20260506040554 3 60 3.2 4.8 0.00 0.00 0.00 87 1013.0
20260506034522 3 57 1.6 3.2 0.00 0.00 0.00 86 1013.2
20260506033517 3 57 0.0 1.6 0.00 0.00 0.00 85 1013.2
20260506032555 3 61 0.0 1.6 0.00 0.00 0.00 84 1013.3
20260506031527 4 50 1.6 4.8 0.00 0.00 0.00 84 1013.2
20260506030525 4 22 1.6 1.6 0.00 0.00 0.00 83 1013.3
20260506025533 4 0.0 0.0 0.00 0.00 0.00 82 1013.2
20260506024527 5 54 1.6 3.2 0.00 0.00 0.00 82 1013.2
20260506023522 5 117 0.0 3.2 0.00 0.00 0.00 80 1013.2
20260506022516 5 83 1.6 3.2 0.00 0.00 0.00 78 1013.0
20260506021530 5 0.0 0.0 0.00 0.00 0.00 79 1013.1
20260506020525 5 11 1.6 3.2 0.00 0.00 0.00 78 1013.0
20260506015519 6 71 1.6 6.4 0.00 0.00 0.00 74 1012.9
20260506014614 6 82 1.6 4.8 0.00 0.00 0.00 77 1012.8
20260506013528 5 347 0.0 1.6 0.00 0.00 0.00 79 1012.7
20260506012522 5 57 0.0 1.6 0.00 0.00 0.00 79 1012.9
20260506011516 5 63 3.2 3.2 0.00 0.00 0.00 80 1012.9
20260506010532 5 59 4.8 6.4 0.00 0.00 0.00 82 1013.1
20260506005525 5 67 6.4 14.5 0.00 0.00 0.00 81 1013.2
20260506004520 5 75 4.8 9.7 0.00 0.00 0.00 85 1013.4
20260506003534 5 54 3.2 4.8 0.00 0.00 0.00 84 1013.4